Regional Weather Roundup
Issued by NWS

Home | Current Version | Previous Version | Graphics & Text | Print | Product List | Glossary On
Versions: 1 2 3 4 5 6 7 8 9 10 11 12 13 14 15 16 17 18 19 20 21 22 23 24 25 26 27 28 29 30 31 32 33 34 35 36 37 38 39 40 41 42 43 44 45 46 47 48 49 50
000
ASUS43 KLSX 221759
RWRMO

WEATHER SUMMARY FOR MISSOURI
NATIONAL WEATHER SERVICE SPRINGFIELD MO
100 PM CDT TUE APR 22 2014

NOTE: "FAIR" INDICATES FEW OR NO CLOUDS BELOW 12,000 FEET WITH NO
       SIGNIFICANT WEATHER AND/OR OBSTRUCTIONS TO VISIBILITY.
       CURRENT SKY AND/OR WEATHER CONDITIONS ARE NOT AVAILABLE FOR
       CHILLICOTHE AND FARMINGTON.

MOZ001>031-035>038-043-044-053-054-221900-
...NORTHERN AND WESTERN MISSOURI...

CITY           SKY/WX    TMP DP  RH WIND       PRES   REMARKS
KANSAS CTY INT FAIR      62  31  31 E7G16     30.11F
6HR MIN TEMP:  42; 6HR MAX TEMP:  63;

KANSAS C DTWN  FAIR      64  33  31 NE7       30.11F
6HR MIN TEMP:  48; 6HR MAX TEMP:  65;

LEE`S SUMMIT   FAIR      63  33  32 NE8       30.12F
6HR MIN TEMP:  47; 6HR MAX TEMP:  63;

ST JOSEPH      FAIR      64  32  30 NE8       30.12F
6HR MIN TEMP:  42; 6HR MAX TEMP:  64;

CHILLICOTHE      N/A     62  35  36 N8        30.13F
6HR MIN TEMP:  46; 6HR MAX TEMP:  62;

KIRKSVILLE     FAIR      61  33  35 N8        30.11F
6HR MIN TEMP:  44; 6HR MAX TEMP:  62;


$$
MOZ066>068-077>081-088>096-101>105-221900-
...SOUTHWEST MISSOURI...

CITY           SKY/WX    TMP DP  RH WIND       PRES   REMARKS
SPRINGFIELD    FAIR      66  40  38 N10       30.07F
6HR MIN TEMP:  52; 6HR MAX TEMP:  66;

JOPLIN         FAIR      66  39  37 NE9       30.10F
6HR MIN TEMP:  50; 6HR MAX TEMP:  66;


$$
MOZ032>034-039>042-045>050-055>058-069>072-221900-
...CENTRAL MISSOURI...

CITY           SKY/WX    TMP DP  RH WIND       PRES   REMARKS
COLUMBIA       FAIR      61  37  41 N12       30.08F
6HR MIN TEMP:  47; 6HR MAX TEMP:  61;

JEFFERSON CITY FAIR      64  33  31 NW9       30.06F
6HR MIN TEMP:  50; 6HR MAX TEMP:  64;

ROLLA          FAIR      64  39  39 N9G17     30.04F
6HR MIN TEMP:  47; 6HR MAX TEMP:  64;

SEDALIA        FAIR      62  33  33 VRB6      30.11F
6HR MIN TEMP:  48; 6HR MAX TEMP:  63;

OSAGE BEACH    FAIR      64  36  34 W8        30.08F

$$
MOZ051-052-059>065-221900-
...EAST CENTRAL MISSOURI...

CITY           SKY/WX    TMP DP  RH WIND       PRES   REMARKS
ST LOUIS INTL  FAIR      66  38  35 NW9       30.03F
6HR MIN TEMP:  54; 6HR MAX TEMP:  66;

SPIRIT OF STL  FAIR      64  39  39 N10       30.04F
6HR MIN TEMP:  51; 6HR MAX TEMP:  64;

ST CHARLES     FAIR      64  39  39 NW12G18   30.03F
6HR MIN TEMP:  52; 6HR MAX TEMP:  64;


$$
MOZ072>076-082>087-097>100-106>115-221900-
...SOUTH CENTRAL AND SOUTHEAST MISSOURI...

CITY           SKY/WX    TMP DP  RH WIND       PRES   REMARKS
CAPE GIRARDEAU FAIR      69  45  41 N16G23    29.97F
6HR MIN TEMP:  60; 6HR MAX TEMP:  69;

FARMINGTON     FAIR      64  41  42 N13       30.04S
6HR MIN TEMP:  54; 6HR MAX TEMP:  64;

POPLAR BLUFF   FAIR      72  40  31 NE12G21   29.96F
6HR MIN TEMP:  61; 6HR MAX TEMP:  72;

WEST PLAINS    FAIR      69  38  32 N9        30.03F
6HR MIN TEMP:  56; 6HR MAX TEMP:  69;


$$



USA.gov is the U.S. government's official web portal to all federal, state and local government web resources and services.